[[{"header":{"parameterUnit":"m.s-1","parameterCategory":1,"la1":30.2991,"la2":30.254,"lo1":-89.0895,"lo2":-89.0444,"dy":0.0017,"dx":0.0017,"nx":28,"ny":28,"refTime":"2023-07-27T09:00:00:Z","depth":0,"parameterNumber":2,"parameterNumberName":"U-component_of_WINDS"},"data":[0,0,0,0,0,0,0,0,0,0,0,0,0,0,0,0,0,0,0,0,0,0,0,0,0,0,0,0,0,0,0,0,0,0,0,0,0,0,0,0,0,0,0,0,0,0,0,0,0,0,0,0,0,0,0,0,0,0,-0.4766,-0.4766,0,-0.4757,-0.4757,-0.4757,-0.4728,-0.4727,-0.4726,-0.4726,-0.4717,-0.4717,-0.4718,0,0,0,0,0,0,0,0,0,0,0,0,0,-0.4758,-0.4759,-0.4766,-0.4766,-0.4766,-0.4757,-0.4757,-0.4757,-0.4728,-0.4727,-0.4726,-0.4725,-0.4717,-0.4717,-0.4718,0,0,0,0,0,0,0,0,0,0,0,0,0,-0.4757,-0.4759,-0.4766,-0.475,-0.4749,-0.4757,-0.4757,-0.4756,-0.4728,-0.4727,-0.4726,-0.4725,-0.4717,-0.4717,-0.4718,-0.474,0,0,-0.4719,-0.472,0,0,0,0,0,0,0,0,-0.4757,-0.4757,-0.4752,-0.4751,-0.4749,-0.4742,-0.4751,-0.4751,-0.4728,-0.4736,-0.4726,-0.4725,-0.4726,-0.4726,-0.4726,-0.474,-0.474,-0.4719,-0.472,-0.472,-0.472,0,0,0,0,0,0,0,-0.4757,-0.4757,-0.4762,-0.4752,-0.4751,-0.4744,-0.4742,-0.4751,-0.4736,-0.4735,-0.4733,-0.4732,-0.4725,-0.4726,-0.4726,-0.4739,-0.4719,-0.472,-0.472,-0.472,-0.4772,-0.4773,0,0,0,0,0,0,-0.4759,-0.4758,-0.4762,-0.4762,-0.4751,-0.4745,-0.4743,-0.4746,-0.4736,-0.4734,-0.4733,-0.4731,-0.4725,-0.4725,-0.4725,-0.4752,-0.472,-0.472,-0.4721,-0.4771,-0.4772,-0.4773,0,0,0,0,0,0,-0.4759,-0.476,-0.4763,-0.4759,-0.4759,-0.4746,-0.4749,-0.4746,-0.4747,-0.4735,-0.4732,-0.4736,-0.4725,-0.4725,-0.4737,-0.4751,-0.4721,-0.4721,-0.477,-0.4771,-0.4773,-0.4805,0,0,0,0,0,0,-0.4759,-0.476,-0.4769,-0.476,-0.4759,-0.4775,-0.475,-0.4746,-0.4748,-0.4745,-0.4737,-0.4735,-0.4724,-0.4736,-0.4738,-0.4751,-0.4722,-0.4768,-0.477,-0.4772,-0.4802,-0.4807,-0.4811,0,0,0,0,0,-0.4759,-0.4778,-0.4769,-0.477,-0.4769,-0.4775,-0.4775,-0.4762,-0.4749,-0.4757,-0.475,-0.4735,-0.4749,-0.4738,-0.4739,-0.4753,-0.4767,-0.477,-0.4772,-0.48,-0.4806,-0.4811,0,0,0,0,0,0,-0.4789,-0.4776,-0.4767,-0.4783,-0.4781,-0.477,-0.4781,-0.4768,-0.477,-0.4767,-0.475,-0.4749,-0.4764,-0.4759,-0.4747,-0.4775,-0.4756,-0.4759,-0.4777,-0.4782,-0.4787,-0.4788,-0.4722,0,0,0,0,0,-0.4797,-0.4803,-0.4792,-0.4808,-0.4807,-0.4794,-0.4796,-0.4786,-0.4783,-0.4782,-0.4775,-0.4772,-0.4776,-0.4779,-0.4782,-0.4801,-0.48,-0.4812,-0.4816,-0.482,-0.4823,-0.4833,-0.4838,-0.4781,-0.4781,-0.4781,0,0,-0.4815,-0.4809,-0.4814,-0.4813,-0.481,-0.4817,-0.4793,-0.4801,-0.4806,-0.4783,-0.4794,-0.4789,-0.4785,-0.4801,-0.4808,-0.4798,-0.4838,-0.4823,-0.4826,-0.4827,-0.4836,-0.4841,-0.4846,-0.4782,-0.4782,-0.4782,0,0,-0.4851,-0.4846,-0.4859,-0.4857,-0.4852,-0.4844,-0.4847,-0.4839,-0.4834,-0.4845,-0.4828,-0.4834,-0.4841,-0.4839,-0.4839,-0.4874,-0.4861,-0.4875,-0.4899,-0.4909,-0.4914,-0.4918,-0.4931,-0.4935,-0.4878,-0.4878,-0.4878,0,-0.4873,-0.4882,-0.4867,-0.4876,-0.4877,-0.4856,-0.4869,-0.4867,-0.4864,-0.4865,-0.4854,-0.4863,-0.4859,-0.4874,-0.4883,-0.4883,-0.4887,-0.4876,-0.4914,-0.4918,-0.4921,-0.4934,-0.4939,-0.488,-0.4879,-0.4879,-0.4879,0,-0.491,-0.4917,-0.4928,-0.4925,-0.4927,-0.4938,-0.4925,-0.4929,-0.4919,-0.4911,-0.4923,-0.4917,-0.4919,-0.4922,-0.4912,-0.4936,-0.493,-0.4917,-0.4898,-0.4929,-0.494,-0.4945,-0.4882,-0.4882,-0.4881,-0.4881,0,0,-0.4964,-0.4954,-0.4958,-0.4957,-0.4951,-0.4955,-0.4966,-0.4967,-0.4971,-0.4969,-0.4978,-0.4984,-0.4972,-0.4972,-0.4961,-0.4971,-0.4999,-0.4956,-0.4956,-0.4965,-0.5026,-0.5037,-0.5042,-0.4991,-0.4991,-0.4992,-0.5027,0,-0.4998,-0.5015,-0.5002,-0.5021,-0.5028,-0.5008,-0.5017,-0.5014,-0.5008,-0.5012,-0.5005,-0.501,-0.4993,-0.4993,-0.5001,-0.4994,-0.5012,-0.4991,-0.4999,-0.4999,-0.5001,-0.5048,-0.5059,-0.5092,-0.5031,-0.5032,-0.5032,0,-0.504,-0.5041,-0.5061,-0.5053,-0.5056,-0.5064,-0.5064,-0.5069,-0.5065,-0.506,-0.506,-0.5048,-0.5057,-0.5038,-0.5052,-0.5038,-0.504,-0.5037,-0.5038,-0.5039,-0.5018,-0.505,-0.5102,-0.5108,-0.5039,-0.5038,-0.5038,0,-0.5078,-0.5084,-0.5097,-0.5096,-0.5088,-0.5094,-0.5091,-0.5087,-0.5089,-0.5089,-0.509,-0.5092,-0.5093,-0.5095,-0.5083,-0.507,-0.5098,-0.5078,-0.5094,-0.5095,-0.5101,-0.5101,-0.5155,-0.5102,-0.5102,-0.5102,-0.5102,0,-0.5118,-0.5131,-0.5114,-0.5122,-0.5136,-0.5121,-0.5135,-0.513,-0.5126,-0.5133,-0.5116,-0.5123,-0.5107,-0.5112,-0.5103,-0.5116,-0.5116,-0.5113,-0.511,-0.5114,-0.5115,-0.5116,-0.5113,-0.5103,-0.5103,-0.5103,-0.5103,0,-0.5163,-0.5152,-0.5164,-0.5156,-0.5154,-0.5165,-0.5157,-0.5164,-0.5157,-0.5165,-0.5167,-0.5155,-0.516,-0.5149,-0.5152,-0.5146,-0.5164,-0.5158,-0.5166,-0.5164,-0.5181,-0.518,-0.5238,-0.5245,-0.5187,-0.5188,-0.5188,0,-0.5189,-0.5198,-0.5191,-0.5194,-0.5192,-0.5197,-0.5199,-0.5185,-0.5188,-0.5185,-0.5193,-0.5196,-0.5199,-0.5208,-0.52,-0.5203,-0.5196,-0.5217,-0.5197,-0.5201,-0.5197,-0.5197,-0.5198,-0.5221,-0.5221,-0.5222,-0.5222,0,-0.5236,-0.523,-0.5234,-0.5236,-0.5238,-0.5239,-0.5238,-0.5242,-0.5227,-0.5231,-0.5236,-0.5238,-0.5242,-0.5246,-0.5247,-0.5244,-0.5231,-0.5229,-0.5233,-0.5237,-0.5242,-0.524,-0.5177,-0.5228,-0.5227,-0.5227,-0.5226,-0.5226,-0.5273,-0.528,-0.5277,-0.5281,-0.5279,-0.5279,-0.5286,-0.5279,-0.5283,-0.5285,-0.5276,-0.5284,-0.528,-0.528,-0.5279,-0.5284,-0.5275,-0.5281,-0.5283,-0.5284,-0.5287,-0.524,-0.5284,-0.5284,-0.5284,-0.5284,-0.5284,0,-0.532,-0.5316,-0.5321,-0.5321,-0.5324,-0.5312,-0.531,-0.5314,-0.5321,-0.5319,-0.5322,-0.5328,-0.5332,-0.5325,-0.5327,-0.5333,-0.5328,-0.5335,-0.5334,-0.5334,-0.5295,-0.5291,-0.5339,-0.5339,-0.5339,-0.5339,-0.5339,-0.5339,-0.5345,-0.5357,-0.5351,-0.5363,-0.536,-0.5367,-0.5367,-0.5367,-0.5366,-0.5373,-0.5377,-0.5372,-0.5368,-0.537,-0.5373,-0.5371,-0.5373,-0.5383,-0.5378,-0.5342,-0.5337,-0.5331,-0.5328,-0.5383,-0.5383,-0.5417,-0.5417,-0.5417]},{"header":{"parameterUnit":"m.s-1","parameterCategory":1,"la1":30.2991,"la2":30.254,"lo1":-89.0895,"lo2":-89.0444,"dy":0.0017,"dx":0.0017,"nx":28,"ny":28,"refTime":"2023-07-27T09:00:00:Z","depth":0,"parameterNumber":3,"parameterNumberName":"V-component_of_WINDS"},"data":[0,0,0,0,0,0,0,0,0,0,0,0,0,0,0,0,0,0,0,0,0,0,0,0,0,0,0,0,0,0,0,0,0,0,0,0,0,0,0,0,0,0,0,0,0,0,0,0,0,0,0,0,0,0,0,0,0,0,-1.6377,-1.6377,0,-1.6392,-1.6392,-1.6392,-1.6393,-1.6393,-1.6393,-1.6393,-1.6407,-1.6407,-1.6408,0,0,0,0,0,0,0,0,0,0,0,0,0,-1.6347,-1.6348,-1.6377,-1.6377,-1.6377,-1.6392,-1.6392,-1.6392,-1.6393,-1.6393,-1.6393,-1.6393,-1.6407,-1.6407,-1.6408,0,0,0,0,0,0,0,0,0,0,0,0,0,-1.6361,-1.6348,-1.6377,-1.6379,-1.638,-1.6392,-1.6392,-1.6393,-1.6393,-1.6393,-1.6393,-1.6392,-1.6406,-1.6407,-1.6408,-1.6418,0,0,-1.641,-1.6411,0,0,0,0,0,0,0,0,-1.636,-1.6362,-1.6379,-1.6379,-1.638,-1.639,-1.6387,-1.6401,-1.6393,-1.6388,-1.6393,-1.6392,-1.6401,-1.6403,-1.6406,-1.6419,-1.6419,-1.6411,-1.6411,-1.6411,-1.6412,0,0,0,0,0,0,0,-1.6359,-1.6361,-1.6383,-1.6379,-1.638,-1.6379,-1.6381,-1.639,-1.6396,-1.6389,-1.6389,-1.639,-1.6402,-1.6405,-1.6406,-1.642,-1.6411,-1.6411,-1.6412,-1.6412,-1.6443,-1.6443,0,0,0,0,0,0,-1.6358,-1.636,-1.6382,-1.6383,-1.6369,-1.638,-1.6382,-1.6387,-1.6396,-1.6397,-1.6391,-1.639,-1.6404,-1.6405,-1.6407,-1.642,-1.6411,-1.6412,-1.6413,-1.6442,-1.6443,-1.6443,0,0,0,0,0,0,-1.6357,-1.636,-1.6382,-1.6372,-1.6375,-1.6381,-1.6387,-1.6388,-1.6391,-1.6398,-1.6399,-1.6393,-1.6404,-1.6406,-1.6416,-1.6421,-1.6412,-1.6413,-1.6442,-1.6442,-1.6443,-1.6447,0,0,0,0,0,0,-1.6356,-1.636,-1.6364,-1.6372,-1.6375,-1.6391,-1.6387,-1.6388,-1.6393,-1.6393,-1.64,-1.6401,-1.6404,-1.6415,-1.6417,-1.6422,-1.6414,-1.6441,-1.6442,-1.6443,-1.6446,-1.6447,-1.6448,0,0,0,0,0,-1.6355,-1.6364,-1.6364,-1.6367,-1.6381,-1.6391,-1.6393,-1.6396,-1.6393,-1.6398,-1.6402,-1.6401,-1.642,-1.6416,-1.6418,-1.6423,-1.6441,-1.6442,-1.6443,-1.6446,-1.6447,-1.6448,0,0,0,0,0,0,-1.6355,-1.6365,-1.6365,-1.6376,-1.6383,-1.6391,-1.6396,-1.6397,-1.6404,-1.6403,-1.6406,-1.6408,-1.6418,-1.6422,-1.6417,-1.6434,-1.643,-1.6431,-1.6432,-1.6433,-1.6434,-1.6433,-1.6415,0,0,0,0,0,-1.6356,-1.6364,-1.6372,-1.6381,-1.6385,-1.639,-1.6394,-1.6396,-1.6403,-1.6405,-1.641,-1.6416,-1.6424,-1.6428,-1.6435,-1.6446,-1.6448,-1.6451,-1.6452,-1.6453,-1.6454,-1.6461,-1.6463,-1.6445,-1.6445,-1.6445,0,0,-1.6359,-1.6365,-1.637,-1.6381,-1.6387,-1.6395,-1.6392,-1.64,-1.6406,-1.6407,-1.6417,-1.642,-1.6427,-1.6438,-1.6443,-1.6441,-1.646,-1.6454,-1.6455,-1.6456,-1.6462,-1.6464,-1.6466,-1.6446,-1.6446,-1.6446,0,0,-1.6368,-1.6373,-1.6382,-1.6388,-1.6396,-1.64,-1.6402,-1.641,-1.6413,-1.6423,-1.6424,-1.643,-1.6443,-1.6448,-1.6452,-1.6464,-1.6464,-1.6466,-1.6472,-1.6479,-1.648,-1.6481,-1.6487,-1.6488,-1.6467,-1.6467,-1.6467,0,-1.637,-1.6383,-1.6386,-1.6395,-1.6401,-1.6402,-1.6411,-1.6416,-1.6426,-1.6429,-1.6427,-1.6443,-1.6448,-1.646,-1.6463,-1.6466,-1.6469,-1.6466,-1.648,-1.6481,-1.6482,-1.6487,-1.6489,-1.6468,-1.6468,-1.6467,-1.6467,0,-1.6385,-1.6394,-1.64,-1.6411,-1.6417,-1.6425,-1.643,-1.6436,-1.6437,-1.6441,-1.6452,-1.6457,-1.6466,-1.6469,-1.647,-1.6482,-1.6481,-1.6479,-1.6475,-1.6484,-1.6489,-1.6491,-1.6468,-1.6468,-1.6468,-1.6468,0,0,-1.6394,-1.6408,-1.641,-1.6415,-1.6425,-1.6432,-1.644,-1.645,-1.6455,-1.6461,-1.6469,-1.648,-1.6479,-1.6484,-1.6485,-1.6491,-1.6502,-1.6489,-1.6489,-1.6492,-1.6516,-1.6518,-1.652,-1.6501,-1.6502,-1.6502,-1.6516,0,-1.6405,-1.6422,-1.6426,-1.644,-1.6449,-1.6451,-1.6458,-1.6465,-1.6469,-1.6476,-1.648,-1.6488,-1.6486,-1.6489,-1.6495,-1.6499,-1.6507,-1.6498,-1.6509,-1.6509,-1.6508,-1.6523,-1.6525,-1.6537,-1.6518,-1.6518,-1.6518,0,-1.642,-1.6429,-1.6444,-1.6454,-1.6457,-1.6465,-1.6474,-1.6481,-1.6489,-1.6491,-1.6497,-1.6498,-1.6508,-1.6503,-1.6516,-1.651,-1.6515,-1.6518,-1.6518,-1.652,-1.6515,-1.6526,-1.6541,-1.6544,-1.6521,-1.6521,-1.6521,0,-1.6426,-1.6441,-1.6453,-1.6457,-1.6469,-1.6474,-1.6479,-1.6486,-1.6492,-1.6499,-1.6503,-1.6512,-1.6516,-1.6523,-1.6526,-1.6523,-1.654,-1.6535,-1.6542,-1.6542,-1.6546,-1.6546,-1.6564,-1.6548,-1.6548,-1.6548,-1.6548,0,-1.6439,-1.6448,-1.6456,-1.6464,-1.6475,-1.6479,-1.649,-1.6494,-1.6501,-1.6509,-1.651,-1.6518,-1.6522,-1.653,-1.6532,-1.6543,-1.6545,-1.6548,-1.6548,-1.6548,-1.6548,-1.6552,-1.6551,-1.6548,-1.6548,-1.6548,-1.6548,0,-1.6448,-1.6453,-1.6466,-1.6476,-1.6479,-1.6487,-1.6495,-1.6502,-1.6506,-1.6517,-1.6519,-1.6526,-1.6535,-1.6539,-1.655,-1.6552,-1.6565,-1.6565,-1.6563,-1.6564,-1.6571,-1.6571,-1.6593,-1.6597,-1.6577,-1.6577,-1.6577,0,-1.6456,-1.6463,-1.6475,-1.6481,-1.6486,-1.6495,-1.6501,-1.6506,-1.6512,-1.6522,-1.6528,-1.6538,-1.6546,-1.6561,-1.6567,-1.6575,-1.6576,-1.6583,-1.6577,-1.6577,-1.6577,-1.6577,-1.6578,-1.6584,-1.6584,-1.6585,-1.6585,0,-1.6469,-1.6472,-1.6481,-1.6492,-1.65,-1.6508,-1.6516,-1.652,-1.6526,-1.6533,-1.6544,-1.655,-1.6562,-1.6572,-1.6582,-1.6586,-1.6587,-1.6586,-1.6589,-1.6589,-1.6588,-1.659,-1.6567,-1.6586,-1.6586,-1.6586,-1.6586,-1.6586,-1.6478,-1.6486,-1.6496,-1.6506,-1.6513,-1.6521,-1.6528,-1.6534,-1.6543,-1.6554,-1.6556,-1.6567,-1.6575,-1.6588,-1.6593,-1.6602,-1.66,-1.6603,-1.6604,-1.6605,-1.6606,-1.6586,-1.6603,-1.6603,-1.6603,-1.6603,-1.6603,0,-1.6493,-1.65,-1.6509,-1.6522,-1.653,-1.653,-1.6539,-1.6546,-1.6557,-1.6564,-1.6573,-1.6585,-1.6595,-1.6602,-1.6611,-1.6617,-1.6618,-1.662,-1.662,-1.6621,-1.6607,-1.6604,-1.6619,-1.6619,-1.6619,-1.6619,-1.6619,-1.6619,-1.6502,-1.6515,-1.6519,-1.6536,-1.6542,-1.6554,-1.6559,-1.6567,-1.6573,-1.6587,-1.6596,-1.66,-1.6608,-1.6618,-1.6628,-1.6629,-1.6633,-1.6636,-1.6637,-1.6624,-1.6622,-1.662,-1.6618,-1.6636,-1.6636,-1.6651,-1.6651,-1.6651]}]]